GSAT-16

Last updated on Wed Sep 17 2025 00:02:48 GMT+0000 (Coordinated Universal Time)

1 40332U 14078A 25259.59465206 .00000065 00000+0 00000+0 0 9991 2 40332 0.0114 131.4688 0005072 344.2768 149.1925 1.00272968 39366
UTC large
Height (km)
Speed (km/s)
/
Latitude / Longitude
Inclination (degrees)
Orbital Period (minutes)
Azimuth
Elevation
Range (km)
Doppler Factor

Next 0 passes for location: London (51.5072 / 0.1276)

Sorry there are no passes over London.